Cedar Rapids, IA

5:26 PM CST on December 14, 2019 (GMT -0600)
The Eastern Iowa Airport

Weather History for KCID - November, 2019

Change the Weather History Date:

Saturday, November 16, 2019

  Actual Average Record
Temperature  
Mean Temperature 34 °F 37 °F  
Max Temperature 43 °F 46 °F 75 °F (1931)
Min Temperature 25 °F 28 °F 0 °F (1959)
Degree Days  
Heating Degree Days 31 28  
Month to date heating degree days 588 384  
Since 1 July heating degree days 1214 994  
Cooling Degree Days 0 0  
Month to date cooling degree days 0 0  
Year to date cooling degree days 803 748  
Moisture  
Dew Point 29 °F    
Average Humidity 82    
Maximum Humidity 100    
Minimum Humidity 64    
Precipitation  
Precipitation 0.00 in 0.07 in 1.71 in (1961)
Month to date precipitation 0.11 1.16  
Year to date precipitation 37.81 32.24  
Sea Level Pressure  
Sea Level Pressure 30.26 in    
Wind  
Wind Speed 10 mph (SE)    
Max Wind Speed 17 mph    
Max Gust Speed 23 mph    
Visibility 4 miles    
Events      
T = Trace of Precipitation, MM = Missing Value Source: NWS Daily Summary

Daily Weather History Graph

Daily Weather History Graph

Search for Another Location

Airport or City:

Astronomy

Nov. 16, 2019 Rise Set
Actual Time 6:57 AM CST 4:45 PM CST
Civil Twilight 6:27 AM CST 5:15 PM CST
Nautical Twilight 5:53 AM CST 5:49 PM CST
Astronomical Twilight 5:20 AM CST 6:22 PM CST
Moon 8:16 PM CST (11/16) 10:53 AM CST (11/16)
Length of Visible Light 10h 47m
Length of Day
9h 47m
Waning Gibbous, 82% of the Moon is Illuminated
Nov 16
Waning Gibbous
Nov 19
Last Quarter
Nov 26
New
Dec 4
First Quarter
Dec 11
Full

Hourly Weather History & Observations

Time (CST) Temp. Windchill Dew Point Humidity Pressure Visibility Wind Dir Wind Speed Gust Speed Precip Events Conditions
12:52 AM 28.0 °F 20.8 °F 26.1 °F 92% 30.37 in 4.0 mi ESE 6.9 mph - N/A   Clear
1:52 AM 28.0 °F 21.7 °F 26.1 °F 92% 30.37 in 4.0 mi ESE 5.8 mph - N/A   Clear
2:52 AM 27.0 °F 20.5 °F 26.1 °F 96% 30.37 in 4.0 mi ESE 5.8 mph - N/A   Clear
3:52 AM 26.1 °F 18.4 °F 24.1 °F 92% 30.36 in 4.0 mi ESE 6.9 mph - N/A   Clear
4:52 AM 26.1 °F 17.6 °F 24.1 °F 92% 30.36 in 3.0 mi ESE 8.1 mph - N/A   Clear
5:52 AM 25.0 °F 16.3 °F 24.1 °F 96% 30.36 in 3.0 mi ESE 8.1 mph - N/A   Clear
6:52 AM 25.0 °F 17.1 °F 24.1 °F 96% 30.36 in 3.0 mi ESE 6.9 mph - N/A   Haze
7:52 AM 28.0 °F 20.0 °F 26.1 °F 92% 30.36 in 3.0 mi SE 8.1 mph - N/A   Haze
8:52 AM 30.9 °F 22.2 °F 28.0 °F 89% 30.35 in 3.0 mi SSE 10.4 mph - N/A   Haze
9:52 AM 34.0 °F 25.5 °F 30.0 °F 85% 30.34 in 3.0 mi SSE 11.5 mph - N/A   Haze
10:52 AM 36.0 °F 27.1 °F 30.9 °F 82% 30.32 in 3.0 mi SSE 13.8 mph - N/A   Haze
11:52 AM 37.9 °F 30.5 °F 32.0 °F 79% 30.28 in 3.0 mi SE 11.5 mph - N/A   Haze
12:52 PM 39.9 °F 33.4 °F 34.0 °F 79% 30.26 in 4.0 mi SE 10.4 mph - N/A   Haze
1:52 PM 42.1 °F 34.9 °F 34.0 °F 73% 30.21 in 5.0 mi SE 13.8 mph - N/A   Haze
2:52 PM 42.1 °F 35.2 °F 34.0 °F 73% 30.18 in 5.0 mi SE 12.7 mph - N/A   Haze
3:52 PM 42.1 °F 35.2 °F 33.1 °F 70% 30.18 in 5.0 mi SE 12.7 mph - N/A   Haze
4:52 PM 37.9 °F 30.0 °F 28.9 °F 70% 30.17 in 6.0 mi SE 12.7 mph - N/A   Haze
5:52 PM 37.0 °F 29.8 °F 27.0 °F 67% 30.15 in 7.0 mi SE 10.4 mph - N/A   Clear
6:52 PM 36.0 °F 28.5 °F 28.0 °F 73% 30.15 in 6.0 mi SE 10.4 mph - N/A   Haze
7:52 PM 36.0 °F 26.7 °F 28.9 °F 76% 30.14 in 6.0 mi SE 15.0 mph - N/A   Haze
8:52 PM 36.0 °F 27.5 °F 28.9 °F 76% 30.14 in 5.0 mi SSE 12.7 mph - N/A   Haze
9:52 PM 35.1 °F 25.9 °F 30.0 °F 82% 30.14 in 5.0 mi SSE 13.8 mph - N/A   Haze
10:52 PM 35.1 °F 26.9 °F 30.0 °F 82% 30.14 in 5.0 mi SSE 11.5 mph 20.7 mph N/A   Haze
11:52 PM 34.0 °F 26.0 °F 30.0 °F 85% 30.12 in 4.0 mi SSE 10.4 mph - N/A   Clear